Weather Roundup
Issued by NWS Springfield, MO

Home | Current Version | Previous Version | Text Only | Print | Product List | Glossary On
Versions: 1 2 3 4 5 6 7 8 9 10 11 12 13 14 15 16 17 18 19 20 21 22 23 24 25 26 27 28 29 30 31 32 33 34 35 36 37 38 39 40 41 42 43 44 45 46 47 48 49 50
000
NZUS99 KSGF 300107
HRRSGF

HOURLY WEATHER
NATIONAL WEATHER SERVICE SPRINGFIELD MO
800 PM CDT MON AUG 29 2016

......SGF CWA......

CITY           SKY/WX    TMP DP  RH WIND       PRES   REMARKS
SPRINGFIELD    CLOUDY    80  67  64 SE6       30.11R
JOPLIN         CLEAR     81  67  62 SE5       30.10R
WEST PLAINS    CLEAR     78  73  84 NE3       30.13S
ROLLA          CLEAR     79  72  79 E5        30.12S
OSAGE BEACH    CLEAR     79  75  87 CALM      30.11S
BRANSON        MOCLDY    73  70  88 S5        30.12F

......SURROUNDING SGF CWA......

CITY           SKY/WX    TMP DP  RH WIND       PRES   REMARKS
CHANUTE        PTCLDY    78  70  76 N5        30.10R
PARSONS        CLOUDY    77  74  90 SW5       30.10R
COFFEYVILLE    TSTM      78  72  81 NW13      30.09R
EMPORIA        CLOUDY    77  74  90 SE3       30.12S
GROVE OK       CLEAR     82  68  61 CALM      30.09R
ROGERS AR      CLOUDY    77  69  76 E8        30.12S
SILOAM SPRINGS CLEAR     79  63  57 NE3       30.08S
HARRISON AR    CLOUDY    73  69  87 CALM      30.12S
NEAR YELLVILLE CLOUDY    75  70  83 CALM      30.07S

......KANSAS AND MISSOURI......

CITY           SKY/WX    TMP DP  RH WIND       PRES   REMARKS
KANSAS CTY INT PTCLDY    82  70  66 NE7       30.13R
DOWNTOWN KC    CLEAR     84  72  67 E5        30.10R
COLUMBIA       CLEAR     80  75  84 E3        30.13R
SEDALIA        CLEAR     83  72  69 CALM      30.13R
ST JOSEPH      PTCLDY    81  72  74 SE5       30.11S
ST LOUIS       CLOUDY    88  72  58 E6        30.11S HX  94
SPIRIT OF STL  PTCLDY    83  78  85 CALM      30.09R HX  93
KIRKSVILLE     CLOUDY    76  72  87 N7        30.16R
WICHITA        MOCLDY    81  69  67 S3        30.11S
TOPEKA         PTCLDY    80  73  79 CALM      30.11R
OLATHE         CLEAR     82  70  66 S3        30.12R

......TENNESSEE......

CITY           SKY/WX    TMP DP  RH WIND       PRES   REMARKS
MEMPHIS        MOCLDY    88  72  58 NE8       30.04R HX  94
NASHVILLE      CLEAR     86  72  62 NE7       30.08R HX  92

......ARKANSAS.......

CITY           SKY/WX    TMP DP  RH WIND       PRES   REMARKS
FAYETTEVILLE   PTCLDY    79  70  74 CALM      30.10S
FT SMITH       CLOUDY    77  70  79 CALM      30.05R
LITTLE ROCK    PTCLDY    84  66  54 E8        30.03R

......OKLAHOMA.......

CITY           SKY/WX    TMP DP  RH WIND       PRES   REMARKS
TULSA          CLOUDY    82  74  76 NW6       30.04R
PONCA CITY     MOCLDY    81  69  67 CALM      30.09S
MCALESTER      CLEAR     86  70  58 E3        30.04R HX  90
OKLAHOMA CITY  MOCLDY    82  68  62 NE8       30.07F

......IOWA............

CITY           SKY/WX    TMP DP  RH WIND       PRES   REMARKS
DES MOINES     CLOUDY    77  70  79 E6        30.14F
QUAD CITIES    CLOUDY    77  72  84 SE5       30.15R

......ILLINOIS........

CITY           SKY/WX    TMP DP  RH WIND       PRES   REMARKS
QUINCY         CLEAR     81  73  76 E3        30.13R
CHICAGO        CLOUDY    75  72  90 NE5       30.17F




USA.gov is the U.S. government's official web portal to all federal, state and local government web resources and services.